Volver al catálogo

YUNHAI 2-1E

ActivoMeteoLEO
NORAD 43913·PAYLOAD·🇨🇳 China

Lanzado Dec 29, 2018 desde Jiuquan Satellite Launch Center

Loading…

Próximos Pases (próximas 24 horas)

TLE

ActualizadoSource: Space-Track

Época: Sep 14, 2026, 15:53 UTC

1 43913U 18112E   26257.66199616  .00000079  00000-0  94552-4 0  9994
2 43913  50.0061 146.9044 0005195 322.5678  37.4874 14.29040374401951

Sigue YUNHAI 2-1E en tiempo real con AllMySat

Download on the App Store